Location: Zilina
(0.0000°N, 18.7333°E)
Time: 23:02:29
(UTC+01:00)

Hubble Space Telescope - Pass Details

Date: 19 February 2019
Orbit: 537 x 540 km, 28.5° (Epoch: 17 March)

Event Time Altitude Azimuth Distance (km) Brightness Sun altitude
Rises 18:27:49 0° 329° (NNW) 2,667 4.6 -7.1°
Reaches altitude 10° 18:31:01 10° 356° (N) 1,778 3.4 -7.9°
Maximum altitude 18:33:12 14° 28° (NNE) 1,545 2.7 -8.4°
Enters shadow 18:35:21 10° 59° (ENE) 1,776 2.8 -8.9°
